When you browse on this site, cookies collect data to enhance your experience and personalize the content and advertising you see.
Visit our Privacy Policy to learn more. By continuing to use the site, you agree to this use of cookies and data.
  • In Hungary
  • List of Countries
  • For 7 days
  • Water Temperature
  • Weather Map
  • News
  • Weather Widgets
  • user-avatar
    Login

    Hourly Weather Shevyaki

    Today, 24 January, Friday

    Time Temperature Precipitation Wind Pressure Humidity
    00:00 -4°C° 0.1 mm 3 mps 739 mmHg 77%
    01:00 -4°C° 0.1 mm 4 mps 739 mmHg 85%
    02:00 -4°C° 0 mm 4 mps 738 mmHg 90%
    03:00 -4°C° 0.1 mm 4 mps 737 mmHg 91%
    04:00 -4°C° 0.1 mm 4 mps 736 mmHg 91%
    05:00 -4°C° 0.1 mm 5 mps 736 mmHg 92%
    06:00 -4°C° 0.2 mm 5 mps 735 mmHg 92%
    07:00 -4°C° 0.2 mm 5 mps 734 mmHg 92%
    08:00 -4°C° 0 mm 5 mps 734 mmHg 91%
    09:00 -2°C° 0.1 mm 5 mps 734 mmHg 93%
    10:00 -2°C° 0.1 mm 5 mps 734 mmHg 94%
    11:00 -1°C° 0.1 mm 5 mps 734 mmHg 96%
    12:00 0°C° 0 mm 5 mps 733 mmHg 94%
    13:00 0°C° 0 mm 5 mps 732 mmHg 93%
    14:00 -1°C° 0 mm 6 mps 732 mmHg 91%
    15:00 +1°C° 0.1 mm 5 mps 732 mmHg 91%
    16:00 +1°C° 0.1 mm 5 mps 731 mmHg 91%
    17:00 +1°C° 0.1 mm 5 mps 731 mmHg 91%
    18:00 +1°C° 0.3 mm 5 mps 731 mmHg 92%
    19:00 +1°C° 0.3 mm 5 mps 731 mmHg 93%
    20:00 +1°C° 0.3 mm 5 mps 731 mmHg 94%
    21:00 +1°C° 0.1 mm 5 mps 731 mmHg 93%
    22:00 +1°C° 0.1 mm 5 mps 730 mmHg 92%
    23:00 +1°C° 0.1 mm 5 mps 730 mmHg 90%

    Tomorrow, 25 January, Saturday

    Time Temperature Precipitation Wind Pressure Humidity
    00:00 +1°C° 0.1 mm 5 mps 731 mmHg 90%
    01:00 +1°C° 0.1 mm 5 mps 731 mmHg 90%
    02:00 +1°C° 0.1 mm 5 mps 731 mmHg 90%
    03:00 0°C° 0 mm 4 mps 730 mmHg 91%
    04:00 0°C° 0 mm 4 mps 730 mmHg 91%
    05:00 0°C° 0 mm 4 mps 730 mmHg 92%
    06:00 0°C° 0 mm 4 mps 730 mmHg 91%
    07:00 0°C° 0 mm 4 mps 730 mmHg 91%
    08:00 0°C° 0 mm 5 mps 729 mmHg 90%
    09:00 0°C° 0 mm 5 mps 729 mmHg 88%
    10:00 +1°C° 0 mm 6 mps 729 mmHg 85%
    11:00 +1°C° 0 mm 6 mps 729 mmHg 82%
    12:00 +1°C° 0 mm 6 mps 730 mmHg 79%
    13:00 -1°C° 0 mm 6 mps 730 mmHg 77%
    14:00 -1°C° 0 mm 6 mps 730 mmHg 74%
    15:00 -1°C° 0.1 mm 5 mps 730 mmHg 77%
    16:00 -1°C° 0.1 mm 5 mps 731 mmHg 80%
    17:00 -2°C° 0.1 mm 5 mps 731 mmHg 83%
    18:00 -2°C° 0 mm 5 mps 731 mmHg 79%
    19:00 -2°C° 0 mm 5 mps 732 mmHg 75%
    20:00 -4°C° 0 mm 5 mps 732 mmHg 71%
    21:00 -4°C° 0 mm 5 mps 733 mmHg 72%
    22:00 -3°C° 0 mm 4 mps 734 mmHg 73%
    23:00 -4°C° 0 mm 4 mps 734 mmHg 74%

    Day after tomorrow, 26 January, Sunday

    Time Temperature Precipitation Wind Pressure Humidity
    00:00 -4°C° 0 mm 4 mps 735 mmHg 75%
    01:00 -4°C° 0 mm 4 mps 735 mmHg 77%
    02:00 -4°C° 0 mm 4 mps 736 mmHg 78%
    03:00 -4°C° 0 mm 4 mps 737 mmHg 79%
    04:00 -5°C° 0 mm 3 mps 737 mmHg 80%
    05:00 -5°C° 0 mm 3 mps 738 mmHg 81%
    06:00 -5°C° 0 mm 3 mps 738 mmHg 82%
    07:00 -4°C° 0 mm 2 mps 738 mmHg 83%
    08:00 -4°C° 0 mm 2 mps 739 mmHg 84%
    09:00 -3°C° 0 mm 2 mps 739 mmHg 80%
    10:00 -2°C° 0 mm 3 mps 739 mmHg 76%
    11:00 -1°C° 0 mm 3 mps 740 mmHg 72%
    12:00 -2°C° 0 mm 4 mps 739 mmHg 71%
    13:00 -1°C° 0 mm 4 mps 739 mmHg 70%
    14:00 0°C° 0 mm 5 mps 739 mmHg 70%
    15:00 0°C° 0 mm 5 mps 739 mmHg 75%
    16:00 -1°C° 0 mm 5 mps 739 mmHg 81%
    17:00 -1°C° 0 mm 5 mps 738 mmHg 86%
    18:00 -1°C° 0 mm 5 mps 738 mmHg 86%
    19:00 -1°C° 0 mm 5 mps 738 mmHg 87%
    20:00 -1°C° 0 mm 5 mps 738 mmHg 87%
    21:00 -1°C° 0 mm 5 mps 739 mmHg 87%
    22:00 -1°C° 0 mm 4 mps 739 mmHg 87%
    23:00 -1°C° 0 mm 4 mps 739 mmHg 88%

    27 January, Monday

    Time Temperature Precipitation Wind Pressure Humidity
    00:00 -1°C° 0 mm 4 mps 739 mmHg 88%
    01:00 -1°C° 0 mm 4 mps 739 mmHg 89%
    02:00 -1°C° 0 mm 4 mps 739 mmHg 90%
    03:00 -1°C° 0 mm 4 mps 738 mmHg 91%
    04:00 -1°C° 0 mm 4 mps 738 mmHg 93%
    05:00 -1°C° 0 mm 4 mps 738 mmHg 94%
    06:00 -1°C° 0 mm 4 mps 738 mmHg 95%
    07:00 0°C° 0 mm 3 mps 738 mmHg 96%
    08:00 0°C° 0 mm 3 mps 738 mmHg 97%
    09:00 +1°C° 0 mm 3 mps 738 mmHg 97%
    10:00 +1°C° 0 mm 3 mps 739 mmHg 96%
    11:00 +1°C° 0 mm 3 mps 739 mmHg 96%
    12:00 +1°C° 0.1 mm 3 mps 738 mmHg 95%
    13:00 +1°C° 0.1 mm 3 mps 738 mmHg 94%
    14:00 0°C° 0.1 mm 4 mps 738 mmHg 93%
    15:00 +1°C° 0 mm 3 mps 738 mmHg 93%
    16:00 +1°C° 0 mm 3 mps 738 mmHg 93%
    17:00 0°C° 0 mm 3 mps 738 mmHg 93%
    18:00 +1°C° 0 mm 2 mps 738 mmHg 94%
    19:00 -1°C° 0 mm 2 mps 738 mmHg 95%
    20:00 -1°C° 0 mm 2 mps 737 mmHg 95%
    21:00 -1°C° 0.1 mm 2 mps 737 mmHg 96%
    22:00 -1°C° 0.1 mm 2 mps 737 mmHg 96%
    23:00 -2°C° 0.1 mm 2 mps 737 mmHg 96%

    28 January, Tuesday

    Time Temperature Precipitation Wind Pressure Humidity
    00:00 0°C° 0.1 mm 1 mps 737 mmHg 96%
    01:00 0°C° 0.1 mm 1 mps 737 mmHg 97%
    02:00 0°C° 0.1 mm 1 mps 736 mmHg 97%
    03:00 0°C° 0.1 mm 1 mps 736 mmHg 97%
    04:00 0°C° 0.1 mm 1 mps 736 mmHg 97%
    05:00 -2°C° 0.1 mm 2 mps 736 mmHg 97%
    06:00 0°C° 0 mm 1 mps 736 mmHg 97%
    07:00 0°C° 0 mm 1 mps 736 mmHg 97%
    08:00 0°C° 0 mm 1 mps 736 mmHg 97%
    09:00 0°C° 0 mm 1 mps 736 mmHg 95%
    10:00 -1°C° 0 mm 2 mps 736 mmHg 93%
    11:00 -1°C° 0 mm 2 mps 736 mmHg 90%
    12:00 -1°C° 0 mm 2 mps 736 mmHg 89%
    13:00 +1°C° 0 mm 2 mps 735 mmHg 88%
    14:00 +1°C° 0 mm 2 mps 735 mmHg 87%
    15:00 -1°C° 0 mm 2 mps 735 mmHg 88%
    16:00 -1°C° 0 mm 2 mps 735 mmHg 90%
    17:00 -1°C° 0 mm 2 mps 735 mmHg 91%
    18:00 -1°C° 0 mm 2 mps 735 mmHg 93%
    19:00 -1°C° 0 mm 2 mps 735 mmHg 95%
    20:00 -1°C° 0 mm 2 mps 735 mmHg 96%
    21:00 -1°C° 0 mm 3 mps 735 mmHg 97%
    22:00 0°C° 0 mm 3 mps 735 mmHg 97%
    23:00 0°C° 0 mm 3 mps 735 mmHg 97%

    29 January, Wednesday

    Time Temperature Precipitation Wind Pressure Humidity
    00:00 0°C° 0 mm 3 mps 734 mmHg 96%
    01:00 -2°C° 0 mm 4 mps 734 mmHg 95%
    02:00 -2°C° 0 mm 4 mps 734 mmHg 94%
    03:00 -2°C° 0 mm 4 mps 733 mmHg 93%
    04:00 -2°C° 0 mm 4 mps 733 mmHg 93%
    05:00 -2°C° 0 mm 4 mps 733 mmHg 92%
    06:00 -2°C° 0 mm 4 mps 732 mmHg 92%
    07:00 -2°C° 0 mm 5 mps 732 mmHg 92%
    08:00 -2°C° 0 mm 5 mps 732 mmHg 91%
    09:00 -2°C° 0 mm 5 mps 731 mmHg 92%
    10:00 -2°C° 0 mm 5 mps 731 mmHg 93%
    11:00 -2°C° 0 mm 5 mps 731 mmHg 94%
    12:00 -2°C° 0.4 mm 5 mps 730 mmHg 95%
    13:00 -1°C° 0.4 mm 5 mps 730 mmHg 95%
    14:00 -1°C° 0.4 mm 4 mps 729 mmHg 96%
    15:00 -1°C° 0.6 mm 4 mps 729 mmHg 96%
    16:00 -1°C° 0.6 mm 4 mps 729 mmHg 97%
    17:00 -1°C° 0.6 mm 4 mps 728 mmHg 97%
    18:00 0°C° 0.6 mm 3 mps 728 mmHg 97%
    19:00 0°C° 0.6 mm 3 mps 728 mmHg 97%
    20:00 0°C° 0.6 mm 3 mps 728 mmHg 98%
    21:00 +1°C° 0.4 mm 2 mps 728 mmHg 98%
    22:00 +1°C° 0.4 mm 2 mps 728 mmHg 98%
    23:00 +1°C° 0.4 mm 2 mps 727 mmHg 98%
    Show more